SQ8AQL-16 Weather Reports


time (UTC)temp
F
wind
direction
speed
knots
gust
knots
rain 1hr
in
rain 24hr
in
rain mn
in
humidity
%
barometer
mb
20260508033950 54 42 0.0 0.0 0.00 0.00 0.00 92 1017.1
20260508032449 54 66 0.0 0.0 0.00 0.00 0.00 91 1016.9
20260508030948 54 114 0.0 0.0 0.00 0.00 0.00 91 1017.0
20260508025447 54 114 0.0 0.0 0.00 0.00 0.00 91 1016.7
20260508023946 54 106 0.0 0.0 0.00 0.00 0.00 91 1016.7
20260508022444 54 96 0.0 0.0 0.00 0.00 0.00 91 1016.6
20260508020943 54 96 0.0 0.0 0.00 0.00 0.00 91 1016.7
20260508015442 55 52 0.0 0.0 0.00 0.00 0.00 92 1016.6
20260508013941 54 126 0.0 0.0 0.00 0.00 0.00 91 1016.5
20260508012440 54 130 0.0 0.0 0.00 0.00 0.00 92 1016.7
20260508010940 55 114 0.0 0.0 0.00 0.00 0.00 90 1016.5
20260508005439 55 114 0.0 0.0 0.00 0.00 0.00 90 1016.2
20260508003938 55 132 0.0 0.0 0.00 0.00 0.00 90 1015.9
20260508002437 55 126 0.0 0.0 0.00 0.00 0.00 90 1016.2
20260508000935 55 102 0.0 0.0 0.00 0.00 0.00 90 1016.4
20260507235435 55 126 0.0 0.0 0.00 0.00 0.00 89 1016.5
20260507233934 55 126 0.0 0.0 0.00 0.00 0.00 89 1016.5
20260507232433 56 132 0.0 0.0 0.00 0.00 0.00 88 1016.5
20260507230932 56 132 0.0 0.0 0.00 0.00 0.00 87 1016.4
20260507225431 56 132 0.0 0.0 0.00 0.00 0.00 87 1016.6
20260507223930 56 108 0.0 0.0 0.00 0.00 0.00 87 1016.6
20260507222429 56 108 0.0 0.0 0.00 0.00 0.00 87 1016.7
20260507220928 56 90 0.0 0.0 0.00 0.00 0.00 86 1016.7
20260507215427 56 39 0.0 0.0 0.00 0.00 0.00 85 1016.7
20260507213926 56 39 0.0 0.0 0.00 0.00 0.00 85 1016.8
20260507212425 56 102 0.0 0.0 0.00 0.00 0.00 85 1016.7
20260507210923 56 48 0.0 0.0 0.00 0.00 0.00 84 1016.7
20260507205422 56 136 0.0 0.0 0.00 0.00 0.00 83 1016.6
20260507203921 57 120 0.0 0.0 0.00 0.00 0.00 83 1016.5
20260507202420 57 90 0.0 0.0 0.00 0.00 0.00 84 1016.4
20260507200918 58 106 0.0 0.0 0.00 0.00 0.00 83 1016.2
20260507195417 58 48 0.0 0.0 0.00 0.00 0.00 84 1016.2
20260507193916 58 114 0.0 0.0 0.00 0.00 0.00 87 1016.0
20260507192415 59 36 0.0 0.0 0.00 0.00 0.00 87 1015.9
20260507190914 59 118 0.0 0.0 0.00 0.00 0.00 87 1015.6
20260507185412 59 96 0.0 0.0 0.00 0.00 0.00 86 1015.3
20260507183911 59 96 0.0 0.0 0.00 0.00 0.00 86 1015.0
20260507180908 60 102 0.0 0.0 0.00 0.00 0.00 86 1014.5
20260507175407 60 300 0.0 0.0 0.00 0.00 0.00 85 1014.4
20260507173906 60 120 0.0 0.0 0.00 0.00 0.00 83 1014.2
20260507170904 60 120 0.0 0.0 0.00 0.00 0.00 83 1014.0
20260507165402 60 175 0.0 0.0 0.00 0.00 0.00 86 1014.1
20260507163901 60 97 0.0 0.0 0.00 0.00 0.00 89 1014.0
20260507162400 61 117 0.0 1.7 0.00 0.00 0.00 89 1014.0
20260507160900 62 137 0.0 1.7 0.00 0.00 0.00 86 1013.8
20260507155358 64 65 0.0 0.0 0.00 0.00 0.00 81 1013.8
20260507153857 65 144 0.0 0.9 0.00 0.00 0.00 78 1013.6
20260507152356 66 336 0.0 0.0 0.00 0.00 0.00 78 1013.4
20260507150855 65 132 0.0 0.0 0.00 0.00 0.00 79 1013.5
20260507145354 65 61 0.0 0.0 0.00 0.00 0.00 78 1013.5
20260507143853 67 312 0.0 0.0 0.00 0.00 0.00 76 1013.4
20260507142352 67 312 0.0 0.0 0.00 0.00 0.00 76 1013.2
20260507140850 69 102 0.0 0.0 0.00 0.00 0.00 67 1013.2
20260507135349 69 102 0.0 0.0 0.00 0.00 0.00 67 1013.1
20260507133848 70 114 0.0 0.0 0.00 0.00 0.00 62 1013.1
20260507132347 71 122 0.0 0.9 0.00 0.00 0.00 56 1012.9
20260507130846 73 126 0.0 0.0 0.00 0.00 0.00 47 1012.7
20260507125345 76 75 0.0 0.9 0.00 0.00 0.00 43 1012.5
20260507123844 78 78 0.0 0.0 0.00 0.00 0.00 39 1012.5
20260507122344 79 44 0.0 0.0 0.00 0.00 0.00 38 1012.6
20260507120842 79 90 0.0 0.0 0.00 0.00 0.00 38 1012.7
20260507115341 76 66 0.0 0.0 0.00 0.00 0.00 42 1012.6
20260507113840 76 66 0.0 0.0 0.00 0.00 0.00 42 1012.7
20260507112339 76 109 0.0 0.9 0.00 0.00 0.00 43 1012.6
20260507110838 77 84 0.0 0.9 0.00 0.00 0.00 41 1012.6
20260507103835 78 172 0.0 1.7 0.00 0.00 0.00 37 1012.4
20260507102335 78 168 0.9 1.7 0.00 0.00 0.00 38 1012.3
20260507100834 77 42 0.9 3.5 0.00 0.00 0.00 38 1012.2
20260507095333 77 82 0.0 1.7 0.00 0.00 0.00 38 1012.2
20260507093832 76 70 0.9 1.7 0.00 0.00 0.00 40 1012.1
20260507092331 76 270 0.0 1.7 0.00 0.00 0.00 40 1012.0
20260507090829 75 133 0.0 1.7 0.00 0.00 0.00 41 1011.8
20260507085329 73 71 0.9 3.5 0.00 0.00 0.00 43 1011.8
20260507083828 74 103 0.9 3.5 0.00 0.00 0.00 43 1011.6
20260507082326 73 72 0.0 1.7 0.00 0.00 0.00 44 1011.4
20260507080825 72 79 0.9 2.6 0.00 0.00 0.00 45 1011.4
20260507075325 71 144 0.9 2.6 0.00 0.00 0.00 47 1011.3
20260507073823 70 0 0.9 5.2 0.00 0.00 0.00 49 1011.4
20260507072322 69 54 0.9 1.7 0.00 0.00 0.00 51 1011.4
20260507070821 67 24 0.0 0.0 0.00 0.00 0.00 60 1011.2
20260507065320 67 168 0.0 0.0 0.00 0.00 0.00 61 1011.2
20260507063818 67 49 0.0 1.7 0.00 0.00 0.00 60 1011.0
20260507062316 67 37 0.0 0.9 0.00 0.00 0.00 61 1010.8
20260507060815 66 310 0.9 2.6 0.00 0.00 0.00 62 1010.8
20260507055314 66 226 0.0 0.0 0.00 0.00 0.00 62 1010.5
20260507053813 66 35 0.0 0.9 0.00 0.00 0.00 63 1010.4
20260507052312 65 264 0.0 1.7 0.00 0.00 0.00 63 1010.5
20260507050810 65 186 0.0 0.0 0.00 0.00 0.00 63 1010.3
20260507045310 64 336 0.0 0.9 0.00 0.00 0.00 66 1010.4
20260507043809 61 61 0.0 0.0 0.00 0.00 0.00 70 1010.5
20260507042307 61 61 0.0 0.0 0.00 0.00 0.00 70 1010.3
20260507040806 61 298 0.0 0.0 0.00 0.00 0.00 70 1010.3
20260507035306 61 120 0.0 0.0 0.00 0.00 0.00 70 1010.2